Location: Chrome
(40.5765°N, 74.2163°W)
Time: 05:40:37
(UTC+00:00)

BREEZE-M DEB (TANK) - Pass Details

Date: 06 December 2019
Orbit: 322 x 13105 km, 49.6° (Epoch: 23 January)

Event Time Altitude Azimuth Distance (km) Brightness Sun altitude
Rises 23:10:05 0° 300° (WNW) 2,361 6.8 -18.5°
Reaches altitude 10° 23:12:10 10° 295° (WNW) 1,279 5.4 -18.9°
Maximum altitude 23:14:27 54° 215° (SW) 401 2.3 -19.3°
Enters shadow 23:14:30 54° 210° (SSW) 402 2.3 -19.3°
